This is the latest recevied weather packets stored in our database for station/object N4DWK. If no packets are shown the sender has not sent any weather packets the latest 1 day(s).
| Time | Temp. | Humidity | Pressure | Rain* | Wind** | Luminosity | Snow |
|---|---|---|---|---|---|---|---|
| 1778073006 | 18.89° C | 76% | 1012 hPa | 0 mm | - | 42 W/m² | - |
| 1778072705 | 18.89° C | 77% | 1012 hPa | 0 mm | - | 60 W/m² | - |
| 1778072105 | 18.89° C | 77% | 1012 hPa | 0 mm | - | 53 W/m² | - |
| 1778071805 | 18.33° C | 77% | 1011.8 hPa | 0 mm | - | 53 W/m² | - |
| 1778070605 | 18.33° C | 77% | 1011.9 hPa | 0 mm | - | 26 W/m² | - |
| 1778070005 | 18.89° C | 76% | 1011.6 hPa | 0 mm | - | 23 W/m² | - |
| 1778068205 | 18.33° C | 77% | 1011.8 hPa | 0 mm | - | 44 W/m² | - |
| 1778067905 | 18.33° C | 77% | 1011.8 hPa | 0 mm | - | 37 W/m² | - |
| 1778067305 | 18.33° C | 77% | 1011.7 hPa | 0 mm | - | 49 W/m² | - |
| 1778066106 | 18.33° C | 78% | 1011.6 hPa | 0 mm | - | 26 W/m² | - |
| 1778065805 | 17.78° C | 78% | 1011.6 hPa | 0 mm | - | 25 W/m² | - |
| 1778065505 | 17.78° C | 78% | 1011.5 hPa | 0 mm | - | 18 W/m² | - |
| 1778064005 | 17.78° C | 77% | 1011.7 hPa | 0 mm | - | 9 W/m² | - |
| 1778063405 | 17.78° C | 77% | 1011.9 hPa | 0 mm | - | 5 W/m² | - |
| 1778062805 | 17.78° C | 77% | 1011.9 hPa | 0 mm | - | 0 W/m² | - |
| 1778062505 | 17.78° C | 77% | 1011.7 hPa | 0 mm | - | 0 W/m² | - |
| 1778061305 | 17.78° C | 77% | 1011.6 hPa | 0 mm | - | 0 W/m² | - |
| 1778060405 | 17.78° C | 77% | 1011.5 hPa | 0 mm | - | 0 W/m² | - |
| 1778060105 | 18.33° C | 77% | 1011.5 hPa | 0 mm | - | 0 W/m² | - |
| 1778059505 | 18.33° C | 77% | 1011.4 hPa | 0 mm | - | 0 W/m² | - |
| 1778059206 | 18.33° C | 78% | 1011.4 hPa | 0 mm | - | 0 W/m² | - |
| 1778057705 | 17.78° C | 78% | 1011.7 hPa | 0 mm | - | 0 W/m² | - |
| 1778057105 | 17.78° C | 78% | 1011.8 hPa | 0 mm | - | 0 W/m² | - |
| 1778055605 | 18.33° C | 78% | 1012 hPa | 0 mm | - | 0 W/m² | - |
| 1778054105 | 18.33° C | 77% | 1011.9 hPa | 0 mm | - | 0 W/m² | - |
* Rain latest hour (hover to see other rain measurements)
** Current wind speed in m/s (hover to see current wind gust speed)